Location: Aldenham
(51.6667°N, 0.3500°W)
Time: 00:56:47
(UTC+00:00)

ISS - Pass Details

Date: 18 November 2025
Orbit: 416 x 420 km, 51.6° (Epoch: 13 December)

Event Time Altitude Azimuth Distance (km) Brightness Sun altitude
Rises 19:32:31 0° 270° (W) 2,369 1.2 -31.4°
Reaches altitude 10° 19:34:37 10° 271° (W) 1,503 -0.1 -31.8°
Enters shadow 19:34:49 11° 271° (W) 1,421 -0.3 -31.8°
